Crawford, Maine
Current Conditions -  °F | °C
As of 6:15 PM on Saturday 25 Oct 2014 (Local Time) from KBHB Reporting Station
Clear Clear  
Wind Chill: 50°   Ceiling: Unl
Heat Index: 50°   Visibility: 10mi
Dew Point: 46°   Wind: 5mph
Humidity: 87%   Direction: 210°SSW
Pressure: 29.56"   Gusts: NA
Location:  45.0659°N, 67.4987°W
Report Text: KBHB 252215Z AUTO 21004KT 10SM CLR 10/08 A2956 RMK AO1
Loading
Personal Weather Stations






























Interactive Weather Map New forecast layout! Learn more

10-Day Weather Forecast

Advertisements
Track Severe Weather on mobile